Location: Newark
(40.9833°N, 0.0333°W)
Time: 03:34:30
(UTC+00:00)

Transit 2A Rocket - Pass Details

Date: 29 October 2020
Orbit: 588 x 914 km, 66.7° (Epoch: 26 November)

Event Time Altitude Azimuth Distance (km) Brightness Sun altitude
Rises 10:01:43 0° 230° (SW) 3,535 8.6 30.5°
Reaches altitude 10° 10:04:24 10° 237° (WSW) 2,598 7.9 30.7°
Maximum altitude 10:10:08 42° 307° (NW) 1,266 6.1 31.2°
Drops below altitude 10° 10:15:43 10° 17° (NNE) 2,523 7.4 31.7°
Sets 10:18:18 0° 25° (NNE) 3,423 8.0 31.9°
